date,time,DOY,Ta_1_1_1,RH_1_1_1,LWin_1_1_1,LWout_1_1_1,SWin_1_1_1,SWout_1_1_1,PPFD_1_1_1,SWC_1_1_1,Ts_1_1_1
[yyyy-mm-dd],[HH:MM],[ddd.ddd],[K],[%],[W+1m-2],[W+1m-2],[W+1m-2],[W+1m-2],[µmol+1m-2s-1],[m+3m-3],[K]
2012-06-11,00:30,163.020,296.48033333333336,54.966666666666676,-8.3973333333333340,-9999.0,0.22500000000000003,-3.7073333333333340,3.33333333333333355E-003,0.28999999999999992,291.21699999999998
2012-06-11,01:00,163.041,296.30333333333340,56.186999999999998,-8.1509999999999980,-9999.0,0.29033333333333328,-3.7079999999999993,6.33333333333333318E-003,0.28999999999999992,291.12200000000001
2012-06-11,01:30,163.062,296.12133333333338,56.688666666666656,-8.2293333333333329,-9999.0,0.27733333333333332,-3.6726666666666667,7.00000000000000101E-003,0.28999999999999992,291.04400000000004
2012-06-11,02:00,163.083,295.81000000000006,57.831333333333319,-8.6150000000000020,-9999.0,0.17766666666666664,-3.5749999999999997,7.33333333333333406E-003,0.28999999999999992,290.97066666666672
2012-06-11,02:30,163.104,295.80100000000010,59.287666666666674,-7.7323333333333331,-9999.0,0.17866666666666667,-2.6883333333333335,6.66666666666666709E-003,0.28999999999999992,290.90399999999994
2012-06-11,03:00,163.124,295.91166666666669,60.317000000000000,-7.2279999999999989,-9999.0,-0.14433333333333334,-1.2433333333333332,1.33333333333333329E-003,0.28999999999999992,290.84800000000007
2012-06-11,03:30,163.145,296.02933333333345,60.746666666666655,-7.5676666666666650,-9999.0,-0.16533333333333333,-1.6853333333333336,5.00000000000000010E-003,0.28999999999999992,290.83133333333336
2012-06-11,04:00,163.166,295.70166666666671,63.282000000000004,-8.0909999999999993,-9999.0,-0.17766666666666667,-3.1493333333333329,4.00000000000000008E-003,0.28999999999999992,290.83400000000000
2012-06-11,04:30,163.187,294.76966666666669,69.993333333333339,-8.1606666666666658,-9999.0,-0.48266666666666652,-1.8956666666666668,3.66666666666666616E-003,0.28999999999999992,290.81833333333344
2012-06-11,05:00,163.208,294.19799999999998,73.441999999999993,-9.3148275862068992,-9999.0,-0.38199999999999995,-2.8986666666666663,3.33333333333333311E-003,0.28999999999999992,290.78833333333330
2012-06-11,05:30,163.229,293.93033333333341,74.854000000000013,-8.5246666666666666,-9999.0,-8.49999999999999922E-002,-2.2086666666666663,1.79999999999999986E-002,0.28999999999999992,290.73766666666660
2012-06-11,06:00,163.249,293.55033333333336,76.796666666666667,-9.7699999999999996,-9999.0,-0.25666666666666665,-3.1876666666666664,0.95166666666666666,0.28999999999999992,290.67299999999994
2012-06-11,06:30,163.270,293.28233333333344,78.350000000000009,-8.5662068965517264,-9999.0,1.3760000000000003,5.0000000000000009,14.209666666666667,0.28999999999999992,290.59166666666664
2012-06-11,07:00,163.291,293.48533333333336,77.081999999999979,-8.9470000000000010,-9999.0,10.636333333333335,49.614666666666658,92.826666666666668,0.28999999999999992,290.51700000000000
2012-06-11,07:30,163.312,293.60466666666667,76.977333333333306,-8.9650000000000016,-9999.0,10.526666666666666,51.626000000000005,94.177333333333323,0.28999999999999992,290.47766666666672
2012-06-11,08:00,163.333,293.19200000000006,79.637000000000000,-8.7740740740740737,-9999.0,3.4920000000000000,21.591000000000001,46.541999999999994,0.28999999999999992,290.46766666666673
2012-06-11,08:30,163.354,293.50866666666673,77.660999999999987,-8.2880000000000003,-9999.0,13.676333333333332,80.743666666666670,169.78933333333333,0.28999999999999992,290.45466666666664
2012-06-11,09:00,163.374,293.41499999999996,78.165000000000006,-8.7983333333333338,-9999.0,18.171666666666670,108.73066666666666,233.56699999999995,0.28999999999999992,290.47566666666660
2012-06-11,09:30,163.395,293.28300000000007,80.495666666666651,-8.5176666666666652,-9999.0,14.365000000000002,88.382000000000019,186.58566666666667,0.28999999999999992,290.51166666666671
2012-06-11,10:00,163.416,292.79699999999997,83.041333333333355,-6.9116666666666662,-9999.0,26.717999999999996,157.00166666666667,318.80399999999997,0.28999999999999992,290.53500000000003
2012-06-11,10:30,163.437,292.76400000000012,82.715666666666692,-6.7199999999999989,-9999.0,41.946333333333328,252.48933333333332,504.80066666666659,0.28999999999999992,290.56200000000007
2012-06-11,11:00,163.458,293.23233333333332,79.256666666666675,-7.0433333333333339,-9999.0,69.060999999999993,411.65233333333327,821.63966666666647,0.28999999999999992,290.63366666666661
2012-06-11,11:30,163.479,294.10533333333336,72.091333333333324,-6.7876666666666674,-9999.0,101.08066666666664,607.49400000000026,1213.9723333333336,0.28999999999999992,290.74933333333337
2012-06-11,12:00,163.499,294.81466666666671,67.858666666666679,-6.5596666666666676,-9999.0,109.50566666666667,658.50966666666670,1302.8640000000000,0.28999999999999992,290.91566666666671
2012-06-11,12:30,163.520,295.67100000000005,62.633333333333340,-5.4040740740740763,-9999.0,128.93933333333337,809.36733333333325,1649.1750000000000,0.28999999999999992,291.12966666666671
2012-06-11,13:00,163.541,296.73500000000001,56.239000000000004,-5.0823333333333336,-9999.0,144.31000000000000,916.41766666666649,1868.8183333333325,0.28999999999999992,291.42233333333337
2012-06-11,13:30,163.562,297.43966666666671,51.934333333333335,-7.3611538461538455,-9999.0,125.57766666666663,796.99133333333316,1609.1196666666667,0.28999999999999992,291.74466666666672
2012-06-11,14:00,163.583,298.15233333333339,46.984666666666655,-6.0353333333333321,-9999.0,147.62233333333333,951.58733333333316,1943.9660000000001,0.28999999999999992,291.94400000000002
2012-06-11,14:30,163.604,298.23933333333332,47.134333333333345,-5.1336363636363629,-9999.0,119.56233333333333,786.60033333333342,1597.7853333333333,0.28999999999999992,292.16766666666678
2012-06-11,15:00,163.624,298.28999999999996,42.151999999999994,-5.6800000000000006,-9999.0,132.57933333333338,867.63433333333330,1769.5806666666665,0.28733333333333333,292.28533333333331
2012-06-11,15:30,163.645,298.72233333333338,27.145666666666678,-5.7300000000000004,-9999.0,141.54666666666668,932.05033333333324,1871.7620000000002,0.28000000000000014,292.25700000000012
2012-06-11,16:00,163.666,298.73333333333335,29.815999999999995,-6.1119999999999992,-9999.0,132.79199999999997,865.68300000000011,1734.2613333333327,0.28000000000000014,292.14966666666663
2012-06-11,16:30,163.687,298.97866666666664,30.609999999999999,-6.1966666666666672,-9999.0,129.97700000000000,848.26100000000008,1697.4046666666663,0.28000000000000014,292.10766666666666
2012-06-11,17:00,163.708,298.69200000000006,34.797666666666672,-6.5626923076923065,-9999.0,105.44666666666669,681.46833333333348,1372.3970000000004,0.28000000000000014,292.57566666666668
2012-06-11,17:30,163.729,298.49700000000007,34.919333333333320,-6.9088235294117650,-9999.0,79.757000000000005,502.78799999999990,1009.8520000000001,0.28000000000000014,292.71233333333328
2012-06-11,18:00,163.749,298.56400000000008,34.149333333333331,-7.9632142857142858,-9999.0,104.50633333333333,659.71800000000007,1285.9599999999998,0.28000000000000014,292.43566666666669
2012-06-11,18:30,163.770,297.82533333333339,35.695333333333338,-8.2174074074074070,-9999.0,86.774000000000015,539.28066666666655,1038.3343333333332,0.28000000000000014,292.15233333333333
2012-06-11,19:00,163.791,296.84533333333337,38.144666666666673,-8.5130434782608706,-9999.0,51.893999999999998,316.60800000000006,613.05933333333326,0.28000000000000014,291.88933333333335
2012-06-11,19:30,163.812,296.05266666666660,46.347666666666662,-8.4552380952380943,-9999.0,44.558000000000000,262.92366666666669,494.73266666666666,0.28000000000000014,291.59333333333331
2012-06-11,20:00,163.833,294.52800000000008,54.008333333333333,-8.5286666666666680,-9999.0,52.869000000000000,291.89333333333337,527.34699999999998,0.28000000000000014,291.40433333333328
2012-06-11,20:30,163.854,293.37733333333341,52.682333333333332,-8.6316666666666677,-9999.0,38.930666666666653,200.72933333333333,347.86333333333334,0.28000000000000014,291.16333333333330
2012-06-11,21:00,163.874,292.59933333333339,50.198000000000000,-9.4388235294117653,-9999.0,24.239333333333338,115.94766666666665,198.50300000000001,0.28000000000000014,290.81700000000001
2012-06-11,21:30,163.895,292.02033333333333,51.321666666666680,-8.7376190476190487,-9999.0,13.708666666666669,47.768999999999998,79.631999999999991,0.28000000000000014,290.47366666666670
2012-06-11,22:00,163.916,291.34800000000007,52.213333333333345,-8.0589999999999975,-9999.0,1.5469999999999997,2.8656666666666668,17.402000000000001,0.28000000000000014,290.19633333333331
2012-06-11,22:30,163.937,290.93000000000012,54.380000000000003,-7.4010000000000007,-9999.0,0.60399999999999998,-3.1546666666666670,1.0313333333333332,0.28000000000000014,289.91133333333335
2012-06-11,23:00,163.958,290.63966666666670,57.525999999999989,-7.0869999999999997,-9999.0,0.35666666666666663,-2.7886666666666664,2.66666666666666753E-002,0.28000000000000014,289.66233333333332
2012-06-11,23:30,163.979,290.21333333333331,60.119333333333337,-6.8533333333333335,-9999.0,-1.93333333333333343E-002,-2.5293333333333332,5.66666666666666707E-003,0.28000000000000014,289.48566666666670
2012-06-12,00:00,164.000,288.19300000000004,60.890999999999984,-5.7720000000000002,-9999.0,-0.71100000000000008,-1.8223333333333334,5.66666666666666707E-003,0.28000000000000014,289.31233333333336
